Weather History for Blair, NE

Change the Weather History Date:

Monday, February 4, 2013

  Actual Average (KOMA) Record (KOMA)
Temperature  
Mean Temperature 30 °F 25 °F  
Max Temperature 38 °F 35 °F 63 °F (1944)
Min Temperature 23 °F 15 °F -25 °F (1883)
Degree Days  
Heating Degree Days 34 40  
Month to date heating degree days 160  
Since 1 July heating degree days 3925  
Cooling Degree Days 0 0  
Month to date cooling degree days 0  
Year to date cooling degree days 0  
Moisture  
Dew Point 22 °F    
Average Humidity 82    
Maximum Humidity 92    
Minimum Humidity 72    
Precipitation  
Precipitation 0.00 in 0.03 in 0.80 in (2012)
Month to date precipitation 0.11  
Year to date precipitation 0.83  
Snow  
Snow 0.00 in 0.20 in - ()
Month to date snowfall 0.9  
Since 1 July snowfall 16.0  
Snow Depth -    
Sea Level Pressure  
Sea Level Pressure 29.91 in    
Wind  
Wind Speed 10 mph (WNW)    
Max Wind Speed 22 mph    
Max Gust Speed 31 mph    
Visibility 9 miles    
Events      
T = Trace of Precipitation, MM = Missing Value Source: NWS Daily Summary

Daily Weather History Graph

Daily Weather History Graph

Search for Another Location

Airport:

Trip Planner

Search our weather history database for the weather conditions in past years. The results will help you decide how hot, cold, wet, or windy it might be!

Date:

Astronomy

Feb. 04, 2013 Rise Set
Actual Time 7:32 AM CST 5:44 PM CST
Civil Twilight 7:03 AM CST 6:13 PM CST
Nautical Twilight 6:30 AM CST 6:46 PM CST
Astronomical Twilight 5:58 AM CST 7:19 PM CST
Moon 2:10 AM CST (2/4) 12:08 PM CST (2/4)
Length of Visible Light 11h 10m
Length of Day
10h 12m
Last Quarter, 37% of the Moon is Illuminated
Feb 4
Last Quarter
Feb 10
New
Feb 17
First Quarter
Feb 25
Full
Mar 4
Last Quarter

Hourly Weather History & Observations

Time (CST) Temp. Windchill Dew Point Humidity Pressure Visibility Wind Dir Wind Speed Gust Speed Precip Events Conditions
12:15 AM 37.6 °F 31.6 °F 30.0 °F 74% 29.76 in 10.0 mi SSW 8.1 mph - N/A   Clear
12:35 AM 37.4 °F 31.4 °F 30.0 °F 75% 29.75 in 10.0 mi SSW 8.1 mph - N/A   Clear
12:55 AM 37.4 °F 31.4 °F 29.8 °F 74% 29.75 in 10.0 mi SSW 8.1 mph - N/A   Clear
1:15 AM 37.2 °F 31.2 °F 29.8 °F 75% 29.75 in 10.0 mi SW 8.1 mph - N/A   Clear
1:35 AM 38.3 °F 31.9 °F 30.0 °F 72% 29.75 in 10.0 mi SW 9.2 mph - N/A   Clear
1:55 AM 37.8 °F 31.3 °F 30.0 °F 74% 29.75 in 10.0 mi West 9.2 mph - N/A   Clear
2:15 AM 37.8 °F 32.5 °F 30.0 °F 74% 29.76 in 10.0 mi WNW 6.9 mph - N/A   Scattered Clouds
2:35 AM 38.3 °F 31.9 °F 29.8 °F 72% 29.77 in 10.0 mi West 9.2 mph - N/A   Scattered Clouds
2:55 AM 37.4 °F 31.4 °F 29.7 °F 74% 29.77 in 10.0 mi WNW 8.1 mph - N/A   Clear
3:15 AM 36.9 °F 28.7 °F 29.3 °F 74% 29.78 in 10.0 mi NNW 12.7 mph - N/A   Clear
4:55 AM 24.4 °F 10.2 °F 21.4 °F 88% 29.84 in 10.0 mi North 19.6 mph 31.1 mph N/A   Overcast
5:15 AM 23.7 °F 10.5 °F 21.2 °F 90% 29.86 in 10.0 mi NNW 16.1 mph 29.9 mph N/A   Overcast
5:35 AM 23.5 °F 9.4 °F 21.2 °F 91% 29.88 in 7.0 mi NNW 18.4 mph 24.2 mph N/A   Overcast
5:55 AM 23.0 °F 9.6 °F 21.0 °F 92% 29.89 in 10.0 mi North 16.1 mph 28.8 mph N/A   Overcast
6:15 AM 23.2 °F 9.8 °F 21.0 °F 91% 29.90 in 10.0 mi NNW 16.1 mph 26.5 mph N/A   Overcast
6:35 AM 23.4 °F 8.4 °F 21.2 °F 91% 29.92 in 7.0 mi North 20.7 mph 26.5 mph N/A   Overcast
6:55 AM 23.4 °F 8.1 °F 21.2 °F 91% 29.93 in 7.0 mi North 21.9 mph 27.6 mph N/A   Overcast
7:15 AM 23.5 °F 9.0 °F 21.2 °F 91% 29.93 in 7.0 mi North 19.6 mph 25.3 mph N/A   Overcast
7:35 AM 23.2 °F 9.4 °F 21.0 °F 91% 29.94 in 7.0 mi NNW 17.3 mph 23.0 mph N/A   Overcast
7:55 AM 23.2 °F 11.4 °F 21.0 °F 91% 29.94 in 7.0 mi North 12.7 mph - N/A   Overcast
8:15 AM 23.4 °F 12.2 °F 20.8 °F 90% 29.95 in 7.0 mi NNW 11.5 mph - N/A   Overcast
8:35 AM 23.0 °F 12.4 °F 19.9 °F 88% 29.96 in 10.0 mi North 10.4 mph - N/A   Overcast
8:55 AM 23.0 °F 11.1 °F 20.1 °F 89% 29.96 in 10.0 mi North 12.7 mph - N/A   Overcast
9:15 AM 23.2 °F 10.3 °F 20.1 °F 88% 29.96 in 7.0 mi NNW 15.0 mph 18.4 mph N/A   Overcast
9:35 AM 23.2 °F 10.3 °F 19.8 °F 87% 29.98 in 10.0 mi NNW 15.0 mph - N/A   Overcast
9:55 AM 23.4 °F 10.6 °F 19.6 °F 85% 29.99 in 10.0 mi North 15.0 mph 19.6 mph N/A   Overcast
10:15 AM 23.4 °F 9.2 °F 19.2 °F 84% 30.00 in 10.0 mi NNW 18.4 mph - N/A   Overcast
10:35 AM 23.5 °F 10.8 °F 19.0 °F 83% 30.00 in 10.0 mi North 15.0 mph - N/A   Overcast
10:55 AM 23.7 °F 14.0 °F 19.0 °F 82% 30.00 in 10.0 mi North 9.2 mph - N/A   Overcast
11:15 AM 23.9 °F 13.5 °F 19.4 °F 83% 30.00 in 10.0 mi NNW 10.4 mph - N/A   Overcast
11:35 AM 24.8 °F 15.3 °F 19.2 °F 79% 30.00 in 10.0 mi North 9.2 mph - N/A   Overcast
11:55 AM 24.4 °F 16.5 °F 19.0 °F 80% 30.01 in 10.0 mi NNW 6.9 mph - N/A   Overcast
12:15 PM 24.8 °F 16.1 °F 19.0 °F 79% 30.00 in 10.0 mi North 8.1 mph - N/A   Overcast
12:35 PM 25.3 °F 16.0 °F 19.2 °F 78% 29.99 in 10.0 mi NNW 9.2 mph - N/A   Overcast
12:55 PM 25.7 °F 19.0 °F 19.4 °F 77% 29.98 in 10.0 mi North 5.8 mph - N/A   Overcast
1:15 PM 26.6 °F 17.5 °F 19.9 °F 76% 29.98 in 10.0 mi NNW 9.2 mph - N/A   Overcast
1:35 PM 27.3 °F 19.1 °F 20.3 °F 75% 29.98 in 10.0 mi North 8.1 mph - N/A   Overcast
1:55 PM 26.6 °F 18.2 °F 19.9 °F 76% 29.98 in 10.0 mi NNW 8.1 mph - N/A   Overcast
2:15 PM 26.6 °F 18.2 °F 20.1 °F 77% 29.97 in 10.0 mi NW 8.1 mph - N/A   Overcast
2:35 PM 27.0 °F 23.0 °F 19.9 °F 75% 29.97 in 10.0 mi WNW 3.5 mph - N/A   Overcast
2:55 PM 27.1 °F 23.2 °F 20.1 °F 75% 29.97 in 10.0 mi NNW 3.5 mph - N/A   Overcast
3:15 PM 26.8 °F 22.8 °F 19.9 °F 75% 29.96 in 10.0 mi NNW 3.5 mph - N/A   Overcast
3:35 PM 26.6 °F - 19.4 °F 74% 29.96 in 10.0 mi Calm Calm - N/A   Overcast
3:55 PM 26.8 °F - 19.8 °F 75% 29.96 in 10.0 mi Calm Calm - N/A   Overcast
4:15 PM 27.0 °F - 20.3 °F 76% 29.95 in 10.0 mi Calm Calm - N/A   Overcast
4:35 PM 26.8 °F - 20.1 °F 76% 29.94 in 10.0 mi Calm Calm - N/A   Overcast
4:55 PM 27.0 °F - 20.3 °F 76% 29.94 in 10.0 mi Calm Calm - N/A   Overcast
5:15 PM 26.6 °F - 20.3 °F 77% 29.93 in 10.0 mi Calm Calm - N/A   Overcast
5:35 PM 26.6 °F 22.6 °F 20.5 °F 78% 29.93 in 10.0 mi SW 3.5 mph - N/A   Overcast
5:55 PM 26.6 °F 22.6 °F 20.8 °F 79% 29.93 in 10.0 mi SSW 3.5 mph - N/A   Overcast
6:15 PM 26.6 °F - 20.8 °F 79% 29.92 in 10.0 mi Calm Calm - N/A   Overcast
6:35 PM 26.4 °F 22.4 °F 21.6 °F 82% 29.91 in 10.0 mi SSW 3.5 mph - N/A   Scattered Clouds
6:55 PM 26.4 °F 22.4 °F 21.6 °F 82% 29.93 in 10.0 mi SW 3.5 mph - N/A   Mostly Cloudy
7:15 PM 26.8 °F 21.4 °F 21.4 °F 80% 29.93 in 10.0 mi SW 4.6 mph - N/A   Overcast
7:35 PM 27.0 °F 18.7 °F 22.1 °F 82% 29.93 in 10.0 mi SW 8.1 mph - N/A   Overcast
7:55 PM 26.2 °F 17.8 °F 21.7 °F 83% 29.93 in 7.0 mi SW 8.1 mph - N/A   Scattered Clouds
8:15 PM 25.5 °F 16.2 °F 21.7 °F 86% 29.91 in 7.0 mi SSW 9.2 mph - N/A   Clear
8:35 PM 25.5 °F 16.2 °F 21.9 °F 86% 29.90 in 7.0 mi South 9.2 mph - N/A   Scattered Clouds
8:55 PM 26.1 °F 15.6 °F 22.3 °F 86% 29.89 in 7.0 mi South 11.5 mph - N/A   Mostly Cloudy
9:15 PM 26.2 °F 15.8 °F 22.6 °F 86% 29.89 in 7.0 mi South 11.5 mph - N/A   Overcast
9:35 PM 26.2 °F 15.2 °F 22.8 °F 87% 29.88 in 7.0 mi South 12.7 mph - N/A   Overcast
9:55 PM 26.4 °F 15.5 °F 23.0 °F 87% 29.89 in 7.0 mi South 12.7 mph - N/A   Overcast
10:15 PM 26.2 °F 16.4 °F 23.0 °F 88% 29.88 in 7.0 mi SSW 10.4 mph - N/A   Overcast
10:35 PM 26.1 °F 15.6 °F 23.0 °F 88% 29.87 in 7.0 mi SSW 11.5 mph - N/A   Overcast
10:55 PM 26.1 °F 15.0 °F 23.0 °F 88% 29.86 in 7.0 mi South 12.7 mph - N/A   Overcast
11:15 PM 26.2 °F 17.1 °F 23.5 °F 90% 29.86 in 7.0 mi South 9.2 mph - N/A   Overcast
11:35 PM 26.4 °F 17.3 °F 23.9 °F 90% 29.86 in 7.0 mi South 9.2 mph - N/A   Overcast
11:55 PM 26.6 °F 16.2 °F 23.9 °F 90% 29.86 in 7.0 mi South 11.5 mph - N/A   Overcast